Overview Statistics Trail Chart Weather Telemetry Raw packets
 

This is the latest recevied weather packets stored in our database for station/object 4S6DRJ-13. If no packets are shown the sender has not sent any weather packets the latest 10 day(s).

<< 22 23 24 25 26 27 28 >>
Time Temp. Humidity Pressure Rain* Wind** Luminosity Snow
1788411131 30.56° C 72% 1010.2 hPa 0 mm 3.13 m/s, 201° 1115 W/m² -
1788411070 30.56° C 73% 1010.2 hPa 0 mm 1.34 m/s, 200° 1113 W/m² -
1788411009 30.56° C 72% 1010.1 hPa 0 mm 2.24 m/s, 259° 1112 W/m² -
1788410948 30.56° C 73% 1010.2 hPa 0 mm 2.24 m/s, 177° 1116 W/m² -
1788410887 30.56° C 74% 1010.1 hPa 0 mm 0.89 m/s, 311° 1121 W/m² -
1788410826 30.56° C 74% 1010.2 hPa 0 mm 0.89 m/s, 225° 339 W/m² -
1788410765 30.56° C 74% 1010.3 hPa 0 mm 0.45 m/s, 159° 1121 W/m² -
1788410704 30.56° C 73% 1010.2 hPa 0 mm 2.68 m/s, 322° 1120 W/m² -
1788410643 30.56° C 72% 1010.2 hPa 0 mm 2.68 m/s, 208° 1105 W/m² -
1788410582 30.56° C 72% 1010.3 hPa 0 mm 2.24 m/s, 258° 1113 W/m² -
1788410521 30.56° C 73% 1010.1 hPa 0 mm 0.89 m/s, 205° 1111 W/m² -
1788410460 30.56° C 72% 1010.2 hPa 0 mm 1.79 m/s, 54° 1107 W/m² -
1788410399 30.56° C 72% 1010.1 hPa 0 mm 3.13 m/s, 249° 318 W/m² -
1788410338 30.56° C 74% 1010.3 hPa 0 mm 1.34 m/s, 314° 928 W/m² -
1788410277 30.56° C 74% 1010.2 hPa 0 mm 0.45 m/s, 132° 901 W/m² -
1788410216 30.56° C 73% 1010.2 hPa 0 mm 1.34 m/s, 241° 960 W/m² -
1788410155 30.56° C 74% 1010.1 hPa 0 mm 0.89 m/s, 142° 1101 W/m² -
1788410094 30.56° C 73% 1010.3 hPa 0 mm 2.24 m/s, 311° 1107 W/m² -
1788410033 30.56° C 73% 1010.4 hPa 0 mm 2.68 m/s, 245° 850 W/m² -
1788409972 30.56° C 73% 1010.3 hPa 0 mm 2.68 m/s, 288° 276 W/m² -
1788409911 30.56° C 73% 1010.4 hPa 0 mm 1.79 m/s, 153° 871 W/m² -
1788409850 30.56° C 73% 1010.3 hPa 0 mm 1.34 m/s, 79° 1104 W/m² -
1788409789 30.56° C 74% 1010.4 hPa 0 mm 1.34 m/s, 3° 964 W/m² -
1788409728 30.56° C 74% 1010.2 hPa 0 mm 0.89 m/s, 283° 982 W/m² -
1788409667 30.56° C 74% 1010.5 hPa 0 mm 2.68 m/s, 255° 1102 W/m² -

* Rain latest hour (hover to see other rain measurements)
** Current wind speed in m/s (hover to see current wind gust speed)